Weather History for Billings, MT

Change the Weather History Date:

Friday, November 1, 2013

  Actual Average Record
Temperature  
Mean Temperature 46 °F 42 °F  
Max Temperature 55 °F 53 °F 72 °F (1965)
Min Temperature 36 °F 32 °F 1 °F (1984)
Degree Days  
Heating Degree Days 19 23  
Month to date heating degree days 19 23  
Since 1 July heating degree days 756 775  
Cooling Degree Days 0 0  
Month to date cooling degree days 0 0  
Year to date cooling degree days 840 636  
Moisture  
Dew Point 27 °F    
Average Humidity 46    
Maximum Humidity 59    
Minimum Humidity 32    
Precipitation  
Precipitation 0.00 in 0.02 in 1.01 in (1957)
Month to date precipitation 0.00 0.02  
Year to date precipitation 14.38 12.55  
Snow  
Snow 0.00 in 0.10 in 8.00 in (1936)
Month to date snowfall 0.0 0.1  
Since 1 July snowfall 5.1 5.3  
Since 1 September snowfall 5.1 5.3  
Snow Depth 0.00 in    
Sea Level Pressure  
Sea Level Pressure 30.10 in    
Wind  
Wind Speed 13 mph (WNW)    
Max Wind Speed 26 mph    
Max Gust Speed 32 mph    
Visibility 10 miles    
Events      
T = Trace of Precipitation, MM = Missing Value Source: NWS Daily Summary

Daily Weather History Graph

Daily Weather History Graph

Search for Another Location

Airport:

Trip Planner

Search our weather history database for the weather conditions in past years. The results will help you decide how hot, cold, wet, or windy it might be!

Date:

Astronomy

Nov. 01, 2013 Rise Set
Actual Time 7:54 AM MDT 6:00 PM MDT
Civil Twilight 7:23 AM MDT 6:31 PM MDT
Nautical Twilight 6:48 AM MDT 7:06 PM MDT
Astronomical Twilight 6:13 AM MDT 7:40 PM MDT
Moon 5:45 AM MDT (11/1) 4:58 PM MDT (11/1)
Length of Visible Light 11h 07m
Length of Day
10h 05m
Waning Crescent, 4% of the Moon is Illuminated
Nov 1
Waning Crescent
Nov 3
New
Nov 9
First Quarter
Nov 17
Full
Nov 25
Last Quarter

Hourly Weather History & Observations

Time (MDT) Temp. Windchill Dew Point Humidity Pressure Visibility Wind Dir Wind Speed Gust Speed Precip Events Conditions
12:53 AM 44.1 °F 35.7 °F 27.0 °F 51% 29.96 in 10.0 mi WNW 20.7 mph 28.8 mph N/A   Partly Cloudy
1:53 AM 44.1 °F 35.0 °F 27.0 °F 51% 29.97 in 10.0 mi WNW 24.2 mph 32.2 mph N/A   Scattered Clouds
2:53 AM 43.0 °F 34.5 °F 26.1 °F 51% 29.99 in 10.0 mi WNW 19.6 mph 27.6 mph N/A   Scattered Clouds
3:53 AM 43.0 °F 34.8 °F 26.1 °F 51% 30.03 in 10.0 mi WNW 18.4 mph - N/A   Mostly Cloudy
4:53 AM 41.0 °F 32.8 °F 26.1 °F 55% 30.06 in 10.0 mi WNW 16.1 mph - N/A   Scattered Clouds
5:53 AM 41.0 °F 32.8 °F 26.1 °F 55% 30.08 in 10.0 mi WNW 16.1 mph - N/A   Scattered Clouds
6:53 AM 39.9 °F 32.1 °F 26.1 °F 58% 30.11 in 10.0 mi WNW 13.8 mph - N/A   Scattered Clouds
7:53 AM 39.0 °F 30.3 °F 26.1 °F 60% 30.13 in 10.0 mi West 16.1 mph - N/A   Partly Cloudy
8:53 AM 42.1 °F 34.2 °F 25.0 °F 51% 30.15 in 10.0 mi WNW 16.1 mph - N/A   Partly Cloudy
9:53 AM 45.0 °F 38.2 °F 26.1 °F 48% 30.17 in 10.0 mi West 15.0 mph - N/A   Partly Cloudy
10:53 AM 48.0 °F - 27.0 °F 44% 30.16 in 10.0 mi WNW 13.8 mph - N/A   Partly Cloudy
11:53 AM 50.0 °F - 28.0 °F 43% 30.16 in 10.0 mi West 13.8 mph - N/A   Partly Cloudy
12:53 PM 50.0 °F - 27.0 °F 41% 30.15 in 10.0 mi WNW 12.7 mph - N/A   Mostly Cloudy
1:53 PM 51.1 °F - 28.0 °F 41% 30.11 in 10.0 mi West 13.8 mph - N/A   Mostly Cloudy
2:53 PM 54.0 °F - 27.0 °F 35% 30.10 in 10.0 mi WNW 16.1 mph 26.5 mph N/A   Mostly Cloudy
3:53 PM 53.1 °F - 24.1 °F 32% 30.09 in 10.0 mi NNW 18.4 mph - N/A   Scattered Clouds
4:53 PM 53.1 °F - 26.1 °F 35% 30.11 in 10.0 mi NW 11.5 mph - N/A   Partly Cloudy
5:53 PM 48.0 °F - 27.0 °F 44% 30.11 in 10.0 mi NNW 8.1 mph - N/A   Scattered Clouds
6:53 PM 43.0 °F 38.8 °F 28.0 °F 56% 30.12 in 10.0 mi NW 6.9 mph - N/A   Partly Cloudy
7:53 PM 46.0 °F 41.9 °F 27.0 °F 47% 30.13 in 10.0 mi SSW 8.1 mph - N/A   Clear
8:53 PM 45.0 °F 41.2 °F 26.1 °F 48% 30.13 in 10.0 mi WSW 6.9 mph - N/A   Partly Cloudy
9:53 PM 42.1 °F 37.1 °F 27.0 °F 55% 30.12 in 10.0 mi SSW 8.1 mph - N/A   Clear
10:53 PM 41.0 °F 36.4 °F 27.0 °F 57% 30.12 in 10.0 mi SW 6.9 mph - N/A   Clear
11:53 PM 39.0 °F 32.8 °F 27.0 °F 62% 30.12 in 10.0 mi SW 9.2 mph - N/A   Clear